Terminal Aerodrome Forecast
Issued by NWS North Platte, NE

Home | Current Version | Previous Version | Graphics & Text | Print | Product List | Glossary On
Versions: 1 2 3 4 5 6 7 8 9 10 11 12 13 14 15 16 17 18 19 20 21 22
808
FTUS43 KLBF 260520
TAFVTN
TAF
KVTN 260520Z 2606/2706 05008KT P6SM SCT250
     FM261200 04010KT P6SM VCSH OVC025
     FM261600 05011G19KT P6SM -SHRA OVC015
     FM262200 02011G19KT P6SM VCSH OVC007
     FM270300 35010KT P6SM VCSH OVC007=

USA.gov is the U.S. government's official web portal to all federal, state and local government web resources and services.